Time,TemperatureF,DewpointF,PressureIn,WindDirection,WindDirectionDegrees,WindSpeedMPH,WindSpeedGustMPH,Humidity,HourlyPrecipIn,Conditions,Clouds,dailyrainin,SoftwareType,DateUTC
2013-03-24 00:00:00,34.2,8.1,17.73,North,1,0.0,0.0,33,0.00,,,0.00,meteohub,2013-03-24 04:00:00,
2013-03-24 00:02:00,34.2,8.1,17.73,North,1,0.0,0.0,33,0.00,,,0.00,meteohub,2013-03-24 04:02:00,
2013-03-24 00:07:00,34.0,8.6,17.73,North,1,0.0,0.0,34,0.00,,,0.00,meteohub,2013-03-24 04:07:00,
2013-03-24 00:12:00,34.0,8.6,17.73,North,1,0.0,0.0,34,0.00,,,0.00,meteohub,2013-03-24 04:12:00,
2013-03-24 00:17:00,34.0,8.6,17.73,North,1,0.0,0.0,34,0.00,,,0.00,meteohub,2013-03-24 04:17:00,
2013-03-24 00:22:00,34.0,9.1,17.73,North,1,0.0,0.0,35,0.00,,,0.00,meteohub,2013-03-24 04:22:00,
2013-03-24 00:27:00,34.0,9.1,17.73,North,1,0.0,0.0,35,0.00,,,0.00,meteohub,2013-03-24 04:27:00,
2013-03-24 00:33:00,33.8,9.0,17.73,North,1,0.0,0.0,35,0.00,,,0.00,meteohub,2013-03-24 04:33:00,
2013-03-24 00:38:00,33.8,9.0,17.73,North,1,0.0,0.0,35,0.00,,,0.00,meteohub,2013-03-24 04:38:00,
2013-03-24 00:43:00,34.0,9.1,17.73,North,1,0.0,0.0,35,0.00,,,0.00,meteohub,2013-03-24 04:43:00,
2013-03-24 00:48:00,33.8,9.0,17.73,North,1,0.0,0.0,35,0.00,,,0.00,meteohub,2013-03-24 04:48:00,
2013-03-24 00:53:00,33.8,9.7,17.73,North,1,0.0,0.0,36,0.00,,,0.00,meteohub,2013-03-24 04:53:00,
2013-03-24 00:58:00,33.6,9.5,17.73,North,1,0.0,0.0,36,0.00,,,0.00,meteohub,2013-03-24 04:58:00,
2013-03-24 01:03:00,33.6,9.5,17.73,North,1,0.0,0.0,36,0.00,,,0.00,meteohub,2013-03-24 05:03:00,
2013-03-24 01:08:00,33.3,9.1,17.73,North,1,0.0,0.0,36,0.00,,,0.00,meteohub,2013-03-24 05:08:00,
2013-03-24 01:13:00,33.1,9.0,17.73,North,1,0.0,0.0,36,0.00,,,0.00,meteohub,2013-03-24 05:13:00,
2013-03-24 01:18:00,32.9,9.5,17.73,North,1,0.0,0.0,37,0.00,,,0.00,meteohub,2013-03-24 05:18:00,
2013-03-24 01:23:00,32.7,9.3,17.73,North,1,0.0,0.0,37,0.00,,,0.00,meteohub,2013-03-24 05:23:00,
2013-03-24 01:28:00,32.5,9.1,17.73,North,1,0.0,0.0,37,0.00,,,0.00,meteohub,2013-03-24 05:28:00,
2013-03-24 01:33:00,32.4,9.5,17.73,North,1,0.0,0.0,38,0.00,,,0.00,meteohub,2013-03-24 05:33:00,
2013-03-24 01:39:00,32.2,9.5,17.73,North,1,0.0,0.0,38,0.00,,,0.00,meteohub,2013-03-24 05:39:00,
2013-03-24 01:44:00,32.0,9.9,17.73,North,1,0.0,0.0,39,0.00,,,0.00,meteohub,2013-03-24 05:44:00,
2013-03-24 01:49:00,32.0,9.9,17.73,North,1,0.0,0.0,39,0.00,,,0.00,meteohub,2013-03-24 05:49:00,
2013-03-24 01:54:00,31.8,10.2,17.73,North,1,0.0,0.0,40,0.00,,,0.00,meteohub,2013-03-24 05:54:00,
2013-03-24 01:59:00,32.0,10.4,17.73,North,1,0.0,0.0,40,0.00,,,0.00,meteohub,2013-03-24 05:59:00,
2013-03-24 02:04:00,32.2,10.6,17.73,North,1,0.0,0.0,40,0.00,,,0.00,meteohub,2013-03-24 06:04:00,
2013-03-24 02:09:00,32.5,10.9,17.73,North,1,0.0,0.0,40,0.00,,,0.00,meteohub,2013-03-24 06:09:00,
2013-03-24 02:14:00,32.7,11.7,17.73,North,1,0.0,0.0,41,0.00,,,0.00,meteohub,2013-03-24 06:14:00,
2013-03-24 02:19:00,33.1,12.0,17.73,North,1,0.0,0.0,41,0.00,,,0.00,meteohub,2013-03-24 06:19:00,
2013-03-24 02:24:00,33.4,12.2,17.73,North,1,0.0,0.0,41,0.00,,,0.00,meteohub,2013-03-24 06:24:00,
2013-03-24 02:29:00,33.8,12.6,17.73,North,1,0.0,0.0,41,0.00,,,0.00,meteohub,2013-03-24 06:29:00,
2013-03-24 02:34:00,34.0,12.7,17.73,North,1,0.0,0.0,41,0.00,,,0.00,meteohub,2013-03-24 06:34:00,
2013-03-24 02:39:00,34.3,13.1,17.73,North,1,0.0,0.0,41,0.00,,,0.00,meteohub,2013-03-24 06:39:00,
2013-03-24 02:44:00,34.5,13.3,17.73,North,1,0.0,0.0,41,0.00,,,0.00,meteohub,2013-03-24 06:44:00,
2013-03-24 02:49:00,34.9,13.6,17.73,North,1,0.0,0.0,41,0.00,,,0.00,meteohub,2013-03-24 06:49:00,
2013-03-24 02:54:00,35.1,13.6,17.73,North,1,0.0,0.0,41,0.00,,,0.00,meteohub,2013-03-24 06:54:00,
2013-03-24 02:59:00,35.4,14.0,17.73,North,1,0.0,0.0,41,0.00,,,0.00,meteohub,2013-03-24 06:59:00,
2013-03-24 03:05:00,35.8,14.4,17.73,North,1,0.0,0.0,41,0.00,,,0.00,meteohub,2013-03-24 07:05:00,
2013-03-24 03:10:00,36.3,14.9,17.73,North,1,0.0,0.0,41,0.00,,,0.00,meteohub,2013-03-24 07:10:00,
2013-03-24 03:15:00,36.7,15.3,17.73,North,1,0.0,0.0,41,0.00,,,0.00,meteohub,2013-03-24 07:15:00,
2013-03-24 03:20:00,36.9,15.4,17.73,North,1,0.0,0.0,41,0.00,,,0.00,meteohub,2013-03-24 07:20:00,
2013-03-24 03:25:00,37.0,15.4,17.73,North,1,0.0,0.0,41,0.00,,,0.00,meteohub,2013-03-24 07:25:00,
2013-03-24 03:30:00,37.2,15.6,17.73,North,1,0.0,0.0,41,0.00,,,0.00,meteohub,2013-03-24 07:30:00,
2013-03-24 03:35:00,37.4,15.3,17.73,North,1,0.0,0.0,40,0.00,,,0.00,meteohub,2013-03-24 07:35:00,
2013-03-24 03:40:00,37.6,15.4,17.73,North,1,0.0,0.0,40,0.00,,,0.00,meteohub,2013-03-24 07:40:00,
2013-03-24 03:45:00,37.8,15.6,17.73,North,1,0.0,0.0,40,0.00,,,0.00,meteohub,2013-03-24 07:45:00,
2013-03-24 03:50:00,38.1,16.0,17.73,North,1,0.0,0.0,40,0.00,,,0.00,meteohub,2013-03-24 07:50:00,
2013-03-24 03:56:00,38.5,16.3,17.73,North,1,0.0,0.0,40,0.00,,,0.00,meteohub,2013-03-24 07:56:00,
2013-03-24 04:01:00,38.7,15.8,17.73,North,1,0.0,0.0,39,0.00,,,0.00,meteohub,2013-03-24 08:01:00,
2013-03-24 04:06:00,38.8,16.0,17.73,North,1,0.0,0.0,39,0.00,,,0.00,meteohub,2013-03-24 08:06:00,
2013-03-24 04:11:00,39.0,16.2,17.73,North,1,0.0,0.0,39,0.00,,,0.00,meteohub,2013-03-24 08:11:00,
2013-03-24 04:16:00,39.0,16.2,17.73,North,1,0.0,0.0,39,0.00,,,0.00,meteohub,2013-03-24 08:16:00,
2013-03-24 04:21:00,39.0,16.2,17.73,North,1,0.0,0.0,39,0.00,,,0.00,meteohub,2013-03-24 08:21:00,
2013-03-24 04:26:00,39.0,16.2,17.73,North,1,0.0,0.0,39,0.00,,,0.00,meteohub,2013-03-24 08:26:00,
2013-03-24 04:32:00,38.8,16.0,17.73,North,1,0.0,0.0,39,0.00,,,0.00,meteohub,2013-03-24 08:32:00,
2013-03-24 04:37:00,38.8,16.5,17.73,North,1,0.0,0.0,40,0.00,,,0.00,meteohub,2013-03-24 08:37:00,
2013-03-24 04:42:00,38.8,16.5,17.73,North,1,0.0,0.0,40,0.00,,,0.00,meteohub,2013-03-24 08:42:00,
2013-03-24 04:47:00,38.8,16.5,17.73,North,1,0.0,0.0,40,0.00,,,0.00,meteohub,2013-03-24 08:47:00,
2013-03-24 04:52:00,39.0,16.7,17.73,North,1,0.0,0.0,40,0.00,,,0.00,meteohub,2013-03-24 08:52:00,
2013-03-24 04:57:00,39.0,16.7,17.73,North,1,0.0,0.0,40,0.00,,,0.00,meteohub,2013-03-24 08:57:00,
2013-03-24 05:02:00,39.2,16.3,17.73,North,1,0.0,0.0,39,0.00,,,0.00,meteohub,2013-03-24 09:02:00,
2013-03-24 05:07:00,39.6,16.7,17.73,East,87,0.0,0.0,39,0.00,,,0.00,meteohub,2013-03-24 09:07:00,
2013-03-24 05:12:00,39.7,16.9,17.73,ENE,77,0.0,0.0,39,0.00,,,0.00,meteohub,2013-03-24 09:12:00,
2013-03-24 05:17:00,40.1,17.1,17.73,ENE,77,0.0,4.0,39,0.00,,,0.00,meteohub,2013-03-24 09:17:00,
2013-03-24 05:22:00,40.3,16.7,17.73,ENE,77,0.0,4.0,38,0.00,,,0.00,meteohub,2013-03-24 09:22:00,
2013-03-24 05:27:00,40.5,15.6,17.73,East,87,4.0,4.0,36,0.00,,,0.00,meteohub,2013-03-24 09:27:00,
2013-03-24 05:32:00,40.6,15.1,17.73,East,93,0.0,4.0,35,0.00,,,0.00,meteohub,2013-03-24 09:32:00,
2013-03-24 05:37:00,41.0,14.7,17.73,East,93,0.0,4.0,34,0.00,,,0.00,meteohub,2013-03-24 09:37:00,
2013-03-24 05:42:00,41.0,14.7,17.73,East,93,0.0,4.0,34,0.00,,,0.00,meteohub,2013-03-24 09:42:00,
2013-03-24 05:48:00,41.0,14.7,17.73,East,93,0.0,4.0,34,0.00,,,0.00,meteohub,2013-03-24 09:48:00,
2013-03-24 05:53:00,41.0,14.7,17.73,East,93,0.0,4.0,34,0.00,,,0.00,meteohub,2013-03-24 09:53:00,
2013-03-24 05:58:00,40.8,14.5,17.73,East,93,0.0,0.0,34,0.00,,,0.00,meteohub,2013-03-24 09:58:00,
2013-03-24 06:03:00,40.8,14.5,17.73,NE,43,0.0,0.0,34,0.00,,,0.00,meteohub,2013-03-24 10:03:00,
2013-03-24 06:08:00,40.6,13.8,17.73,East,82,0.0,0.0,33,0.00,,,0.00,meteohub,2013-03-24 10:08:00,
2013-03-24 06:13:00,40.8,14.0,17.73,North,6,0.0,3.0,33,0.00,,,0.00,meteohub,2013-03-24 10:13:00,
2013-03-24 06:18:00,40.8,14.0,17.73,North,357,0.0,3.0,33,0.00,,,0.00,meteohub,2013-03-24 10:18:00,
2013-03-24 06:23:00,40.6,13.8,17.73,North,357,0.0,3.0,33,0.00,,,0.00,meteohub,2013-03-24 10:23:00,
2013-03-24 06:28:00,40.6,13.8,17.73,North,5,0.0,3.0,33,0.00,,,0.00,meteohub,2013-03-24 10:28:00,
2013-03-24 06:33:00,40.6,13.8,17.73,North,5,0.0,4.0,33,0.00,,,0.00,meteohub,2013-03-24 10:33:00,
2013-03-24 06:38:00,40.6,13.8,17.73,North,357,4.0,4.0,33,0.00,,,0.00,meteohub,2013-03-24 10:38:00,
2013-03-24 06:43:00,40.6,13.8,17.73,NE,47,0.0,4.0,33,0.00,,,0.00,meteohub,2013-03-24 10:43:00,
2013-03-24 06:48:00,40.6,13.8,17.73,NE,48,0.0,4.0,33,0.00,,,0.00,meteohub,2013-03-24 10:48:00,
2013-03-24 06:53:00,40.8,14.0,17.73,North,11,0.0,4.0,33,0.00,,,0.00,meteohub,2013-03-24 10:53:00,
2013-03-24 06:58:00,41.0,13.5,17.73,East,82,2.0,4.0,32,0.00,,,0.00,meteohub,2013-03-24 10:58:00,
2013-03-24 07:03:00,41.0,13.5,17.73,ENE,58,0.0,3.0,32,0.00,,,0.00,meteohub,2013-03-24 11:03:00,
2013-03-24 07:09:00,41.0,13.5,17.73,NNE,16,4.0,4.0,32,0.00,,,0.00,meteohub,2013-03-24 11:09:00,
2013-03-24 07:14:00,41.2,13.5,17.73,North,6,0.0,3.0,32,0.00,,,0.00,meteohub,2013-03-24 11:14:00,
2013-03-24 07:19:00,41.2,13.5,17.73,ESE,117,4.0,4.0,32,0.00,,,0.00,meteohub,2013-03-24 11:19:00,
2013-03-24 07:24:00,41.2,13.5,17.73,East,84,0.0,4.0,32,0.00,,,0.00,meteohub,2013-03-24 11:24:00,
2013-03-24 07:29:00,41.0,13.5,17.73,ENE,74,3.0,4.0,32,0.00,,,0.00,meteohub,2013-03-24 11:29:00,
2013-03-24 07:34:00,40.8,14.0,17.73,NE,56,3.0,4.0,33,0.00,,,0.00,meteohub,2013-03-24 11:34:00,
2013-03-24 07:39:00,40.6,14.5,17.73,ENE,69,0.0,4.0,34,0.00,,,0.00,meteohub,2013-03-24 11:39:00,
2013-03-24 07:44:00,40.5,14.9,17.73,NNW,333,3.0,4.0,35,0.00,,,0.00,meteohub,2013-03-24 11:44:00,
2013-03-24 07:49:00,40.1,14.7,17.73,North,0,0.0,4.0,35,0.00,,,0.00,meteohub,2013-03-24 11:49:00,
2013-03-24 07:54:00,39.9,15.1,17.73,ENE,67,4.0,5.0,36,0.00,,,0.00,meteohub,2013-03-24 11:54:00,
2013-03-24 07:59:00,39.9,15.1,17.73,North,7,0.0,5.0,36,0.00,,,0.00,meteohub,2013-03-24 11:59:00,
2013-03-24 08:05:00,39.9,15.8,17.73,NNE,29,0.0,5.0,37,0.00,,,0.00,meteohub,2013-03-24 12:05:00,
2013-03-24 08:10:00,39.9,16.3,17.73,East,84,0.0,4.0,38,0.00,,,0.00,meteohub,2013-03-24 12:10:00,
2013-03-24 08:15:00,39.9,16.3,17.73,ENE,76,0.0,4.0,38,0.00,,,0.00,meteohub,2013-03-24 12:15:00,
2013-03-24 08:20:00,39.9,16.3,17.73,North,0,0.0,4.0,38,0.00,,,0.00,meteohub,2013-03-24 12:20:00,
2013-03-24 08:25:00,39.9,16.3,17.73,NE,44,0.0,4.0,38,0.00,,,0.00,meteohub,2013-03-24 12:25:00,
2013-03-24 08:30:00,39.9,16.9,17.73,North,0,0.0,4.0,39,0.00,,,0.00,meteohub,2013-03-24 12:30:00,
2013-03-24 08:35:00,39.7,16.9,17.73,North,0,0.0,0.0,39,0.00,,,0.00,meteohub,2013-03-24 12:35:00,
2013-03-24 08:40:00,39.7,16.9,17.73,NNW,343,0.0,0.0,39,0.00,,,0.00,meteohub,2013-03-24 12:40:00,
2013-03-24 08:45:00,39.7,16.9,17.73,North,353,0.0,0.0,39,0.00,,,0.00,meteohub,2013-03-24 12:45:00,
2013-03-24 08:51:00,39.6,16.7,17.73,East,81,0.0,0.0,39,0.00,,,0.00,meteohub,2013-03-24 12:51:00,
2013-03-24 08:56:00,39.4,17.1,17.73,ENE,64,2.0,0.0,40,0.00,,,0.00,meteohub,2013-03-24 12:56:00,
2013-03-24 09:01:00,39.4,17.6,17.73,ENE,74,0.0,4.0,41,0.00,,,0.00,meteohub,2013-03-24 13:01:00,
2013-03-24 09:06:00,39.2,17.4,17.73,SE,128,0.0,4.0,41,0.00,,,0.00,meteohub,2013-03-24 13:06:00,
2013-03-24 09:11:00,39.2,18.0,17.73,North,0,0.0,4.0,42,0.00,,,0.04,meteohub,2013-03-24 13:11:00,
2013-03-24 09:17:00,39.2,18.0,17.73,SE,124,0.0,4.0,42,0.04,,,0.04,meteohub,2013-03-24 13:17:00,
2013-03-24 09:22:00,39.2,18.0,17.73,West,281,0.0,4.0,42,0.04,,,0.04,meteohub,2013-03-24 13:22:00,
2013-03-24 09:27:00,39.4,18.7,17.73,West,271,2.0,6.0,43,0.04,,,0.04,meteohub,2013-03-24 13:27:00,
2013-03-24 09:32:00,39.4,18.7,17.73,NE,53,2.0,6.0,43,0.04,,,0.04,meteohub,2013-03-24 13:32:00,
2013-03-24 09:37:00,39.4,18.7,17.73,ENE,77,3.0,6.0,43,0.04,,,0.04,meteohub,2013-03-24 13:37:00,
2013-03-24 09:42:00,39.4,19.2,17.73,ENE,60,2.0,6.0,44,0.04,,,0.04,meteohub,2013-03-24 13:42:00,
2013-03-24 09:47:00,39.6,19.4,17.73,ENE,77,2.0,6.0,44,0.04,,,0.04,meteohub,2013-03-24 13:47:00,
2013-03-24 09:52:00,39.6,19.4,17.73,NNE,16,3.0,6.0,44,0.04,,,0.04,meteohub,2013-03-24 13:52:00,
2013-03-24 09:58:00,39.6,19.4,17.73,East,95,4.0,6.0,44,0.04,,,0.04,meteohub,2013-03-24 13:58:00,
2013-03-24 10:03:00,39.7,19.6,17.73,North,11,4.0,6.0,44,0.04,,,0.04,meteohub,2013-03-24 14:03:00,
2013-03-24 10:08:00,39.7,19.6,17.73,North,9,0.0,6.0,44,0.04,,,0.04,meteohub,2013-03-24 14:08:00,
2013-03-24 10:13:00,39.7,20.1,17.73,NNE,27,4.0,6.0,45,0.04,,,0.04,meteohub,2013-03-24 14:13:00,
2013-03-24 10:18:00,39.6,19.9,17.73,NNE,14,5.0,6.0,45,0.04,,,0.04,meteohub,2013-03-24 14:18:00,
2013-03-24 10:23:00,39.6,20.5,17.73,NNE,14,4.0,6.0,46,0.00,,,0.04,meteohub,2013-03-24 14:23:00,
2013-03-24 10:28:00,39.6,20.5,17.73,North,8,4.0,6.0,46,0.00,,,0.08,meteohub,2013-03-24 14:28:00,
2013-03-24 10:33:00,39.4,20.3,17.73,NNE,26,3.0,7.0,46,0.04,,,0.08,meteohub,2013-03-24 14:33:00,
2013-03-24 10:38:00,39.4,20.8,17.73,East,80,3.0,7.0,47,0.04,,,0.08,meteohub,2013-03-24 14:38:00,
2013-03-24 10:43:00,39.4,20.8,17.73,NNE,28,4.0,7.0,47,0.04,,,0.08,meteohub,2013-03-24 14:43:00,
2013-03-24 10:48:00,39.2,21.2,17.73,WNW,283,3.0,6.0,48,0.04,,,0.08,meteohub,2013-03-24 14:48:00,
2013-03-24 10:54:00,39.2,21.6,17.73,North,353,3.0,6.0,49,0.08,,,0.12,meteohub,2013-03-24 14:54:00,
2013-03-24 10:59:00,39.4,21.7,17.73,East,81,3.0,6.0,49,0.08,,,0.12,meteohub,2013-03-24 14:59:00,
2013-03-24 11:04:00,39.4,22.3,17.73,East,84,4.0,6.0,50,0.08,,,0.12,meteohub,2013-03-24 15:04:00,
2013-03-24 11:09:00,39.6,22.5,17.73,NNE,26,3.0,8.0,50,0.08,,,0.12,meteohub,2013-03-24 15:09:00,
2013-03-24 11:14:00,39.4,22.3,17.73,ENE,71,8.0,8.0,50,0.08,,,0.12,meteohub,2013-03-24 15:14:00,
2013-03-24 11:19:00,39.4,22.3,17.73,NNE,25,4.0,8.0,50,0.08,,,0.12,meteohub,2013-03-24 15:19:00,
2013-03-24 11:24:00,39.4,22.8,17.73,SE,127,3.0,8.0,51,0.04,,,0.12,meteohub,2013-03-24 15:24:00,
2013-03-24 11:29:00,39.2,22.1,17.73,SSW,209,6.0,8.0,50,0.04,,,0.12,meteohub,2013-03-24 15:29:00,
2013-03-24 11:35:00,39.2,22.6,17.73,NNE,32,3.0,8.0,51,0.04,,,0.12,meteohub,2013-03-24 15:35:00,
2013-03-24 11:40:00,39.4,22.8,17.73,ESE,120,6.0,8.0,51,0.04,,,0.12,meteohub,2013-03-24 15:40:00,
2013-03-24 11:45:00,39.4,22.8,17.73,SE,141,3.0,11.0,51,0.04,,,0.12,meteohub,2013-03-24 15:45:00,
2013-03-24 11:50:00,39.4,22.8,17.73,ENE,66,11.0,11.0,51,0.04,,,0.12,meteohub,2013-03-24 15:50:00,
2013-03-24 11:55:00,39.4,22.8,17.73,ENE,68,3.0,11.0,51,0.00,,,0.12,meteohub,2013-03-24 15:55:00,
2013-03-24 12:00:00,39.4,22.8,17.73,ESE,106,4.0,11.0,51,0.00,,,0.12,meteohub,2013-03-24 16:00:00,
2013-03-24 12:05:00,39.4,23.2,17.73,SSE,165,2.0,11.0,52,0.00,,,0.12,meteohub,2013-03-24 16:05:00,
2013-03-24 12:10:00,39.4,23.2,17.73,East,93,5.0,11.0,52,0.00,,,0.12,meteohub,2013-03-24 16:10:00,
2013-03-24 12:15:00,39.4,23.2,17.73,NNW,338,0.0,11.0,52,0.00,,,0.12,meteohub,2013-03-24 16:15:00,
2013-03-24 12:20:00,39.6,23.4,17.73,NNE,28,3.0,11.0,52,0.00,,,0.12,meteohub,2013-03-24 16:20:00,
2013-03-24 12:25:00,39.6,23.4,17.73,East,83,3.0,8.0,52,0.00,,,0.12,meteohub,2013-03-24 16:25:00,
2013-03-24 12:30:00,39.7,23.5,17.73,East,83,6.0,8.0,52,0.00,,,0.12,meteohub,2013-03-24 16:30:00,
2013-03-24 12:36:00,39.7,24.1,17.73,NE,55,4.0,8.0,53,0.00,,,0.12,meteohub,2013-03-24 16:36:00,
2013-03-24 12:41:00,39.7,24.1,17.73,NE,37,3.0,8.0,53,0.00,,,0.12,meteohub,2013-03-24 16:41:00,
2013-03-24 12:46:00,39.7,24.1,17.73,East,92,3.0,6.0,53,0.00,,,0.12,meteohub,2013-03-24 16:46:00,
2013-03-24 12:51:00,39.7,24.1,17.73,NNW,344,3.0,6.0,53,0.00,,,0.12,meteohub,2013-03-24 16:51:00,
2013-03-24 12:56:00,39.6,23.9,17.73,East,87,3.0,8.0,53,0.04,,,0.12,meteohub,2013-03-24 16:56:00,
2013-03-24 13:02:00,39.6,24.3,17.73,NNW,339,6.0,8.0,54,0.04,,,0.17,meteohub,2013-03-24 17:02:00,
2013-03-24 13:07:00,39.4,24.1,17.73,North,6,4.0,8.0,54,0.04,,,0.17,meteohub,2013-03-24 17:07:00,
2013-03-24 13:12:00,39.4,24.1,17.73,East,79,4.0,8.0,54,0.04,,,0.20,meteohub,2013-03-24 17:12:00,
2013-03-24 13:17:00,39.2,23.9,17.73,NNE,23,8.0,8.0,54,0.08,,,0.20,meteohub,2013-03-24 17:17:00,
2013-03-24 13:22:00,39.2,24.4,17.73,SE,135,5.0,7.0,55,0.08,,,0.20,meteohub,2013-03-24 17:22:00,
2013-03-24 13:27:00,39.0,24.6,17.73,North,353,6.0,11.0,56,0.08,,,0.20,meteohub,2013-03-24 17:27:00,
2013-03-24 13:32:00,39.0,24.6,17.73,North,9,2.0,11.0,56,0.08,,,0.20,meteohub,2013-03-24 17:32:00,
2013-03-24 13:38:00,38.8,24.4,17.73,NE,44,4.0,11.0,56,0.17,,,0.29,meteohub,2013-03-24 17:38:00,
2013-03-24 13:42:00,38.8,25.0,17.73,North,9,3.0,11.0,57,0.17,,,0.29,meteohub,2013-03-24 17:42:00,
2013-03-24 13:48:00,38.7,24.8,17.73,NNE,18,2.0,9.0,57,0.17,,,0.29,meteohub,2013-03-24 17:48:00,
2013-03-24 13:53:00,38.7,24.8,17.73,North,0,5.0,9.0,57,0.17,,,0.33,meteohub,2013-03-24 17:53:00,
2013-03-24 13:58:00,38.7,25.2,17.73,East,88,3.0,8.0,58,0.17,,,0.33,meteohub,2013-03-24 17:58:00,
2013-03-24 14:03:00,38.7,25.2,17.73,NNE,16,3.0,8.0,58,0.17,,,0.37,meteohub,2013-03-24 18:03:00,
2013-03-24 14:08:00,38.8,25.7,17.73,East,82,11.0,11.0,59,0.25,,,0.37,meteohub,2013-03-24 18:08:00,
2013-03-24 14:13:00,38.8,25.7,17.73,NNE,25,8.0,10.0,59,0.25,,,0.46,meteohub,2013-03-24 18:13:00,
2013-03-24 14:18:00,38.8,26.1,17.73,East,96,4.0,11.0,60,0.25,,,0.46,meteohub,2013-03-24 18:18:00,
2013-03-24 14:23:00,38.8,25.7,17.73,North,9,5.0,11.0,59,0.25,,,0.46,meteohub,2013-03-24 18:23:00,
2013-03-24 14:29:00,38.8,26.1,17.73,ENE,67,5.0,8.0,60,0.25,,,0.46,meteohub,2013-03-24 18:29:00,
2013-03-24 14:34:00,38.8,26.1,17.73,NNE,31,4.0,8.0,60,0.25,,,0.50,meteohub,2013-03-24 18:34:00,
2013-03-24 14:39:00,38.7,26.4,17.73,NNE,27,0.0,9.0,61,0.25,,,0.50,meteohub,2013-03-24 18:39:00,
2013-03-24 14:44:00,38.7,26.4,17.73,East,95,4.0,9.0,61,0.25,,,0.50,meteohub,2013-03-24 18:44:00,
2013-03-24 14:49:00,38.7,26.4,17.73,SE,131,4.0,11.0,61,0.25,,,0.50,meteohub,2013-03-24 18:49:00,
2013-03-24 14:54:00,38.7,26.4,17.73,NE,36,3.0,6.0,61,0.17,,,0.54,meteohub,2013-03-24 18:54:00,
2013-03-24 14:59:00,38.7,26.8,17.73,NNW,341,0.0,6.0,62,0.17,,,0.54,meteohub,2013-03-24 18:59:00,
2013-03-24 15:04:00,38.7,27.1,17.73,NNE,16,4.0,6.0,63,0.13,,,0.54,meteohub,2013-03-24 19:04:00,
2013-03-24 15:09:00,38.7,27.1,17.73,East,86,0.0,17.0,63,0.13,,,0.54,meteohub,2013-03-24 19:09:00,
2013-03-24 15:14:00,38.7,27.1,17.73,NE,51,3.0,10.0,63,0.08,,,0.54,meteohub,2013-03-24 19:14:00,
2013-03-24 15:19:00,38.7,27.1,17.73,North,0,0.0,10.0,63,0.08,,,0.54,meteohub,2013-03-24 19:19:00,
2013-03-24 15:24:00,38.8,27.3,17.73,NNE,27,3.0,6.0,63,0.08,,,0.54,meteohub,2013-03-24 19:24:00,
2013-03-24 15:30:00,38.8,27.7,17.73,NNE,27,4.0,6.0,64,0.08,,,0.54,meteohub,2013-03-24 19:30:00,
2013-03-24 15:35:00,38.8,28.0,17.73,NNE,30,4.0,9.0,65,0.08,,,0.58,meteohub,2013-03-24 19:35:00,
2013-03-24 15:40:00,38.8,28.0,17.73,NE,47,3.0,9.0,65,0.08,,,0.58,meteohub,2013-03-24 19:40:00,
2013-03-24 15:45:00,38.7,27.9,17.73,NNE,17,3.0,6.0,65,0.08,,,0.62,meteohub,2013-03-24 19:45:00,
2013-03-24 15:50:00,38.7,27.9,17.73,NNE,20,8.0,8.0,65,0.08,,,0.62,meteohub,2013-03-24 19:50:00,
2013-03-24 15:55:00,38.7,27.9,17.73,NNE,24,5.0,8.0,65,0.08,,,0.62,meteohub,2013-03-24 19:55:00,
2013-03-24 16:00:00,38.7,27.9,17.73,North,9,3.0,8.0,65,0.08,,,0.62,meteohub,2013-03-24 20:00:00,
2013-03-24 16:05:00,38.7,27.9,17.73,North,349,0.0,8.0,65,0.08,,,0.62,meteohub,2013-03-24 20:05:00,
2013-03-24 16:10:00,38.7,28.2,17.73,North,353,4.0,8.0,66,0.08,,,0.62,meteohub,2013-03-24 20:10:00,
2013-03-24 16:15:00,38.7,28.2,17.73,NNW,341,0.0,7.0,66,0.08,,,0.62,meteohub,2013-03-24 20:15:00,
2013-03-24 16:20:00,38.7,28.2,17.73,NE,51,3.0,7.0,66,0.08,,,0.62,meteohub,2013-03-24 20:20:00,
2013-03-24 16:25:00,38.7,28.2,17.73,East,87,4.0,7.0,66,0.04,,,0.62,meteohub,2013-03-24 20:25:00,
2013-03-24 16:30:00,38.5,28.0,17.73,NE,44,3.0,7.0,66,0.04,,,0.62,meteohub,2013-03-24 20:30:00,
2013-03-24 16:36:00,38.5,28.4,17.73,SE,127,0.0,8.0,67,0.04,,,0.62,meteohub,2013-03-24 20:36:00,
2013-03-24 16:41:00,38.5,28.4,17.73,North,357,2.0,8.0,67,0.04,,,0.62,meteohub,2013-03-24 20:41:00,
2013-03-24 16:47:00,38.5,28.4,17.73,NNE,24,6.0,8.0,67,0.00,,,0.62,meteohub,2013-03-24 20:47:00,
2013-03-24 16:52:00,38.5,28.8,17.73,NNE,23,4.0,8.0,68,0.00,,,0.62,meteohub,2013-03-24 20:52:00,
2013-03-24 16:57:00,38.5,28.8,17.73,North,0,3.0,9.0,68,0.00,,,0.62,meteohub,2013-03-24 20:57:00,
2013-03-24 17:02:00,38.5,29.1,17.73,NNE,16,4.0,9.0,69,0.00,,,0.66,meteohub,2013-03-24 21:02:00,
2013-03-24 17:07:00,38.5,29.1,17.73,North,357,4.0,8.0,69,0.04,,,0.66,meteohub,2013-03-24 21:07:00,
2013-03-24 17:12:00,38.5,29.1,17.73,NNE,27,6.0,8.0,69,0.04,,,0.66,meteohub,2013-03-24 21:12:00,
2013-03-24 17:17:00,38.5,29.1,17.73,SW,229,3.0,10.0,69,0.04,,,0.66,meteohub,2013-03-24 21:17:00,
2013-03-24 17:22:00,38.5,29.5,17.73,NW,326,5.0,10.0,70,0.04,,,0.66,meteohub,2013-03-24 21:22:00,
2013-03-24 17:27:00,38.5,29.5,17.73,NE,44,3.0,10.0,70,0.04,,,0.66,meteohub,2013-03-24 21:27:00,
2013-03-24 17:32:00,38.5,29.5,17.73,ESE,112,0.0,10.0,70,0.04,,,0.70,meteohub,2013-03-24 21:32:00,
2013-03-24 17:37:00,38.3,29.3,17.73,ESE,119,3.0,11.0,70,0.08,,,0.70,meteohub,2013-03-24 21:37:00,
2013-03-24 17:43:00,38.3,29.3,17.73,NNE,25,5.0,11.0,70,0.08,,,0.70,meteohub,2013-03-24 21:43:00,
2013-03-24 17:48:00,38.3,29.3,17.73,NNW,341,6.0,9.0,70,0.08,,,0.70,meteohub,2013-03-24 21:48:00,
2013-03-24 17:53:00,38.3,29.7,17.73,ENE,61,5.0,9.0,71,0.08,,,0.70,meteohub,2013-03-24 21:53:00,
2013-03-24 17:58:00,38.1,29.5,17.73,NNE,24,3.0,9.0,71,0.08,,,0.70,meteohub,2013-03-24 21:58:00,
2013-03-24 18:03:00,38.3,29.7,17.73,West,281,4.0,9.0,71,0.04,,,0.70,meteohub,2013-03-24 22:03:00,
2013-03-24 18:08:00,38.1,29.5,17.73,NNE,22,2.0,9.0,71,0.04,,,0.70,meteohub,2013-03-24 22:08:00,
2013-03-24 18:13:00,38.1,29.5,17.73,ENE,74,2.0,9.0,71,0.04,,,0.70,meteohub,2013-03-24 22:13:00,
2013-03-24 18:18:00,38.1,29.8,17.73,NNE,29,8.0,8.0,72,0.04,,,0.70,meteohub,2013-03-24 22:18:00,
2013-03-24 18:23:00,37.9,29.7,17.73,WSW,248,6.0,8.0,72,0.04,,,0.70,meteohub,2013-03-24 22:23:00,
2013-03-24 18:28:00,37.9,29.7,17.73,SE,142,3.0,8.0,72,0.04,,,0.70,meteohub,2013-03-24 22:28:00,
2013-03-24 18:33:00,37.9,29.7,17.73,NE,56,3.0,8.0,72,0.00,,,0.70,meteohub,2013-03-24 22:33:00,
2013-03-24 18:38:00,37.8,29.5,17.73,North,9,3.0,8.0,72,0.00,,,0.70,meteohub,2013-03-24 22:38:00,
2013-03-24 18:43:00,37.8,29.5,17.73,NE,46,3.0,8.0,72,0.00,,,0.70,meteohub,2013-03-24 22:43:00,
2013-03-24 18:48:00,37.6,29.3,17.73,NNE,23,4.0,10.0,72,0.00,,,0.70,meteohub,2013-03-24 22:48:00,
2013-03-24 18:54:00,37.6,29.3,17.73,North,8,4.0,10.0,72,0.00,,,0.70,meteohub,2013-03-24 22:54:00,
2013-03-24 18:59:00,37.4,29.1,17.73,NW,305,4.0,10.0,72,0.00,,,0.70,meteohub,2013-03-24 22:59:00,
2013-03-24 19:04:00,37.4,29.1,17.73,NNW,341,3.0,10.0,72,0.00,,,0.70,meteohub,2013-03-24 23:04:00,
2013-03-24 19:09:00,37.2,29.3,17.73,NNE,25,3.0,9.0,73,0.00,,,0.70,meteohub,2013-03-24 23:09:00,
2013-03-24 19:14:00,37.2,29.1,17.73,East,99,4.0,9.0,72,0.00,,,0.70,meteohub,2013-03-24 23:14:00,
2013-03-24 19:19:00,37.0,28.9,17.73,North,357,5.0,9.0,72,0.00,,,0.70,meteohub,2013-03-24 23:19:00,
2013-03-24 19:24:00,37.0,28.9,17.73,NNE,12,0.0,9.0,72,0.00,,,0.70,meteohub,2013-03-24 23:24:00,
2013-03-24 19:29:00,37.0,28.9,17.73,ENE,77,3.0,11.0,72,0.00,,,0.70,meteohub,2013-03-24 23:29:00,
2013-03-24 19:34:00,36.9,28.8,17.73,SSE,159,3.0,11.0,72,0.00,,,0.70,meteohub,2013-03-24 23:34:00,
2013-03-24 19:39:00,36.9,28.8,17.73,NNE,17,0.0,11.0,72,0.00,,,0.70,meteohub,2013-03-24 23:39:00,
2013-03-24 19:44:00,36.9,28.8,17.73,North,7,5.0,9.0,72,0.00,,,0.70,meteohub,2013-03-24 23:44:00,
2013-03-24 19:50:00,36.9,28.8,17.73,NNW,340,2.0,9.0,72,0.00,,,0.70,meteohub,2013-03-24 23:50:00,
2013-03-24 19:55:00,36.9,28.8,17.73,ESE,104,3.0,8.0,72,0.00,,,0.70,meteohub,2013-03-24 23:55:00,
2013-03-24 20:00:00,36.9,28.4,17.73,East,100,3.0,8.0,71,0.00,,,0.70,meteohub,2013-03-25 00:00:00,
2013-03-24 20:05:00,36.9,28.4,17.73,NNW,343,0.0,8.0,71,0.00,,,0.70,meteohub,2013-03-25 00:05:00,
2013-03-24 20:10:00,36.9,28.4,17.73,ENE,73,0.0,8.0,71,0.00,,,0.70,meteohub,2013-03-25 00:10:00,
2013-03-24 20:15:00,36.7,28.2,17.73,WNW,290,2.0,8.0,71,0.00,,,0.00,meteohub,2013-03-25 00:15:00,
2013-03-24 20:20:00,36.7,28.2,17.73,East,100,3.0,8.0,71,0.00,,,0.00,meteohub,2013-03-25 00:20:00,
2013-03-24 20:25:00,36.7,27.9,17.73,East,79,0.0,10.0,70,0.00,,,0.00,meteohub,2013-03-25 00:25:00,
2013-03-24 20:30:00,36.7,27.9,17.73,South,180,0.0,10.0,70,0.00,,,0.00,meteohub,2013-03-25 00:30:00,
2013-03-24 20:35:00,36.7,27.9,17.73,East,82,4.0,6.0,70,0.00,,,0.00,meteohub,2013-03-25 00:35:00,
2013-03-24 20:40:00,36.7,27.9,17.73,ESE,105,0.0,6.0,70,0.00,,,0.00,meteohub,2013-03-25 00:40:00,
2013-03-24 20:45:00,36.7,27.9,17.73,East,94,3.0,5.0,70,0.00,,,0.00,meteohub,2013-03-25 00:45:00,
2013-03-24 20:50:00,36.7,27.9,17.73,NNE,12,0.0,5.0,70,0.00,,,0.00,meteohub,2013-03-25 00:50:00,
2013-03-24 20:55:00,36.7,27.5,17.73,ESE,119,3.0,8.0,69,0.00,,,0.00,meteohub,2013-03-25 00:55:00,
2013-03-24 21:01:00,36.7,27.5,17.73,ENE,73,0.0,8.0,69,0.00,,,0.00,meteohub,2013-03-25 01:01:00,
2013-03-24 21:06:00,36.7,27.5,17.73,NE,50,0.0,4.0,69,0.00,,,0.00,meteohub,2013-03-25 01:06:00,
2013-03-24 21:11:00,36.7,27.5,17.73,North,350,0.0,4.0,69,0.00,,,0.00,meteohub,2013-03-25 01:11:00,
2013-03-24 21:16:00,36.7,27.5,17.73,North,357,3.0,4.0,69,0.00,,,0.00,meteohub,2013-03-25 01:16:00,
2013-03-24 21:21:00,36.5,27.3,17.73,NE,53,0.0,4.0,69,0.00,,,0.00,meteohub,2013-03-25 01:21:00,
2013-03-24 21:26:00,36.5,27.3,17.73,North,353,0.0,5.0,69,0.00,,,0.00,meteohub,2013-03-25 01:26:00,
2013-03-24 21:31:00,36.5,27.3,17.73,NNE,20,0.0,5.0,69,0.00,,,0.00,meteohub,2013-03-25 01:31:00,
2013-03-24 21:36:00,36.5,27.0,17.73,North,6,0.0,5.0,68,0.00,,,0.00,meteohub,2013-03-25 01:36:00,
2013-03-24 21:41:00,36.5,27.0,17.73,ESE,102,0.0,5.0,68,0.00,,,0.00,meteohub,2013-03-25 01:41:00,
2013-03-24 21:46:00,36.5,27.0,17.73,NE,40,0.0,7.0,68,0.00,,,0.00,meteohub,2013-03-25 01:46:00,
2013-03-24 21:51:00,36.5,27.0,17.73,North,6,2.0,7.0,68,0.00,,,0.00,meteohub,2013-03-25 01:51:00,
2013-03-24 21:56:00,36.5,27.0,17.73,ENE,77,0.0,5.0,68,0.00,,,0.00,meteohub,2013-03-25 01:56:00,
2013-03-24 22:01:00,36.5,27.0,17.73,NNE,27,0.0,5.0,68,0.00,,,0.00,meteohub,2013-03-25 02:01:00,
2013-03-24 22:07:00,36.5,27.0,17.73,North,8,0.0,5.0,68,0.00,,,0.00,meteohub,2013-03-25 02:07:00,
2013-03-24 22:12:00,36.5,27.0,17.73,NNE,29,3.0,5.0,68,0.00,,,0.00,meteohub,2013-03-25 02:12:00,
2013-03-24 22:17:00,36.5,27.0,17.73,NE,40,0.0,4.0,68,0.00,,,0.00,meteohub,2013-03-25 02:17:00,
2013-03-24 22:22:00,36.5,27.0,17.73,North,357,5.0,5.0,68,0.00,,,0.00,meteohub,2013-03-25 02:22:00,
2013-03-24 22:27:00,36.3,26.8,17.73,North,6,0.0,5.0,68,0.00,,,0.00,meteohub,2013-03-25 02:27:00,
2013-03-24 22:32:00,36.3,26.4,17.73,North,7,0.0,5.0,67,0.00,,,0.00,meteohub,2013-03-25 02:32:00,
2013-03-24 22:37:00,36.3,26.8,17.73,North,0,0.0,5.0,68,0.00,,,0.00,meteohub,2013-03-25 02:37:00,
2013-03-24 22:42:00,36.3,26.8,17.73,North,0,0.0,5.0,68,0.00,,,0.00,meteohub,2013-03-25 02:42:00,
2013-03-24 22:47:00,36.3,26.8,17.73,North,357,0.0,3.0,68,0.00,,,0.00,meteohub,2013-03-25 02:47:00,
2013-03-24 22:53:00,36.3,26.8,17.73,NNE,25,0.0,3.0,68,0.00,,,0.00,meteohub,2013-03-25 02:53:00,
2013-03-24 22:58:00,36.3,26.8,17.73,ENE,72,0.0,0.0,68,0.00,,,0.00,meteohub,2013-03-25 02:58:00,
2013-03-24 23:03:00,36.3,26.8,17.73,NE,50,0.0,0.0,68,0.00,,,0.00,meteohub,2013-03-25 03:03:00,
2013-03-24 23:08:00,36.3,26.8,17.73,NE,50,0.0,2.0,68,0.00,,,0.00,meteohub,2013-03-25 03:08:00,
2013-03-24 23:13:00,36.3,26.8,17.73,North,0,0.0,2.0,68,0.00,,,0.00,meteohub,2013-03-25 03:13:00,
2013-03-24 23:18:00,36.3,26.8,17.73,ENE,73,0.0,2.0,68,0.00,,,0.00,meteohub,2013-03-25 03:18:00,
2013-03-24 23:24:00,36.3,26.8,17.73,East,96,0.0,2.0,68,0.00,,,0.00,meteohub,2013-03-25 03:24:00,
2013-03-24 23:29:00,36.1,26.6,17.73,ENE,76,0.0,0.0,68,0.00,,,0.00,meteohub,2013-03-25 03:29:00,
2013-03-24 23:34:00,36.1,26.6,17.73,SSE,148,0.0,5.0,68,0.00,,,0.00,meteohub,2013-03-25 03:34:00,
2013-03-24 23:39:00,36.1,26.6,17.73,ESE,109,3.0,5.0,68,0.00,,,0.00,meteohub,2013-03-25 03:39:00,
2013-03-24 23:44:00,36.1,26.6,17.73,ENE,72,0.0,5.0,68,0.00,,,0.00,meteohub,2013-03-25 03:44:00,
2013-03-24 23:49:00,36.1,26.6,17.73,East,84,0.0,6.0,68,0.00,,,0.00,meteohub,2013-03-25 03:49:00,
2013-03-24 23:54:00,36.0,26.4,17.73,East,81,0.0,5.0,68,0.00,,,0.00,meteohub,2013-03-25 03:54:00,